MM0ZIF Weather Reports


Display with metric or nautical units.
time (UTC)temp
F
wind
direction
speed
MPH
gust
MPH
rain 1hr
in
rain 24hr
in
rain mn
in
humidity
%
barometer
mb
20260507003505 43 172 1.0 3.0 0.00 0.12 0.00 93 1002.4
20260507003005 43 167 1.0 3.0 0.00 0.12 0.00 93 1002.3
20260507002506 43 98 0.0 2.0 0.00 0.12 0.00 93 1002.3
20260507002005 43 131 1.0 6.0 0.00 0.12 0.00 93 1002.4
20260507001505 43 115 1.0 6.0 0.00 0.12 0.00 94 1002.4
20260507001006 43 142 3.0 6.0 0.00 0.12 0.00 94 1002.5
20260507000505 43 173 1.0 5.0 0.00 0.12 0.00 94 1002.6
20260506235505 44 142 1.0 3.0 0.00 0.12 0.00 95 1002.8
20260506235005 44 144 1.0 5.0 0.00 0.12 0.00 95 1002.6
20260506234006 44 137 2.0 5.0 0.00 0.12 0.00 95 1003.1
20260506233506 44 171 1.0 2.0 0.01 0.12 0.00 95 1003.2
20260506233006 44 148 1.0 3.0 0.02 0.12 0.00 95 1002.9
20260506232505 44 128 2.0 5.0 0.04 0.12 0.00 95 1003.0
20260506232006 44 105 1.0 3.0 0.07 0.12 0.00 95 1002.8
20260506231506 44 99 1.0 3.0 0.08 0.12 0.00 95 1002.9
20260506230505 44 126 1.0 3.0 0.10 0.12 0.00 95 1003.0
20260506230005 44 125 1.0 3.0 0.10 0.12 0.00 95 1003.1
20260506225505 44 89 1.0 3.0 0.11 0.12 0.12 95 1003.1
20260506225005 43 136 1.0 3.0 0.11 0.12 0.12 94 1003.3
20260506224505 43 89 1.0 2.0 0.12 0.12 0.12 94 1003.4
20260506224006 43 117 1.0 5.0 0.12 0.12 0.12 93 1003.4
20260506223505 43 134 1.0 6.0 0.11 0.11 0.11 93 1003.3
20260506223005 44 115 0.0 3.0 0.11 0.11 0.11 91 1003.6
20260506221505 45 87 1.0 5.0 0.04 0.04 0.04 90 1003.3
20260506221005 45 90 2.0 5.0 0.03 0.03 0.03 90 1003.4
20260506220005 45 65 1.0 5.0 0.02 0.02 0.02 89 1003.5
20260506215006 45 73 2.0 6.0 0.01 0.01 0.01 87 1003.6
20260506214505 45 123 2.0 6.0 0.00 0.00 0.00 87 1003.6
20260506214005 46 84 3.0 8.0 0.00 0.00 0.00 86 1003.8
20260506213504 46 153 2.0 8.0 0.00 0.00 0.00 83 1003.7
20260506213005 46 86 2.0 7.0 0.00 0.00 0.00 82 1003.6
20260506212505 46 65 2.0 7.0 0.00 0.00 0.00 81 1003.8
20260506212004 46 101 2.0 6.0 0.00 0.00 0.00 80 1003.8
20260506211504 46 98 3.0 8.0 0.00 0.00 0.00 80 1003.8
20260506211006 47 101 2.0 7.0 0.00 0.00 0.00 80 1004.0
20260506210505 47 78 2.0 6.0 0.00 0.00 0.00 79 1003.9
20260506210005 47 91 3.0 6.0 0.00 0.00 0.00 77 1003.9
20260506205505 47 76 2.0 7.0 0.00 0.00 0.00 74 1003.8
20260506205005 47 99 4.0 8.0 0.00 0.00 0.00 72 1004.2
20260506204505 47 177 3.0 9.0 0.00 0.00 0.00 73 1004.1
20260506204005 47 66 3.0 7.0 0.00 0.00 0.00 74 1004.1
20260506203505 47 92 3.0 6.0 0.00 0.00 0.00 75 1004.1
20260506203004 46 123 2.0 7.0 0.00 0.00 0.00 76 1004.3
20260506202505 46 83 2.0 7.0 0.00 0.00 0.00 74 1004.3
20260506202004 46 95 2.0 6.0 0.00 0.00 0.00 74 1004.2
20260506201505 46 88 2.0 6.0 0.00 0.00 0.00 75 1004.4
20260506201005 46 119 2.0 5.0 0.00 0.00 0.00 74 1004.3
20260506200504 46 67 2.0 6.0 0.00 0.00 0.00 73 1004.3
20260506200005 46 112 1.0 5.0 0.00 0.00 0.00 72 1004.5
20260506195004 46 89 1.0 5.0 0.00 0.00 0.00 72 1004.2
20260506194505 46 104 2.0 6.0 0.00 0.00 0.00 72 1004.6
20260506194005 46 74 2.0 3.0 0.00 0.00 0.00 71 1004.8
20260506193504 46 91 2.0 5.0 0.00 0.00 0.00 71 1004.7
20260506193005 46 66 2.0 5.0 0.00 0.00 0.00 70 1004.8
20260506192505 46 90 1.0 3.0 0.00 0.00 0.00 70 1004.8
20260506192005 46 108 2.0 5.0 0.00 0.00 0.00 70 1004.9
20260506191504 46 83 3.0 5.0 0.00 0.00 0.00 69 1005.0
20260506191004 46 69 1.0 6.0 0.00 0.00 0.00 69 1004.9
20260506190504 46 94 2.0 5.0 0.00 0.00 0.00 69 1005.1
20260506190005 46 107 1.0 2.0 0.00 0.00 0.00 69 1005.1
20260506185505 46 139 1.0 3.0 0.00 0.00 0.00 67 1005.2
20260506185004 46 62 1.0 5.0 0.00 0.00 0.00 67 1005.2
20260506184504 46 92 1.0 5.0 0.00 0.00 0.00 67 1005.4
20260506184004 46 88 2.0 5.0 0.00 0.00 0.00 67 1005.4
20260506183505 46 87 2.0 5.0 0.00 0.00 0.00 67 1005.5
20260506182504 46 69 3.0 6.0 0.00 0.00 0.00 66 1005.5
20260506182004 46 74 1.0 3.0 0.00 0.00 0.00 68 1005.6
20260506181004 46 96 3.0 6.0 0.00 0.00 0.00 68 1005.3
20260506180504 46 72 2.0 6.0 0.00 0.00 0.00 69 1005.4
20260506180005 46 67 2.0 6.0 0.00 0.00 0.00 71 1005.3
20260506175504 46 102 2.0 8.0 0.00 0.00 0.00 72 1005.3
20260506174504 46 66 2.0 5.0 0.00 0.00 0.00 72 1005.5
20260506173503 46 85 2.0 7.0 0.00 0.00 0.00 73 1005.6
20260506173004 46 70 2.0 6.0 0.00 0.00 0.00 73 1005.6
20260506172004 47 58 2.0 8.0 0.00 0.00 0.00 73 1005.6
20260506171504 47 71 3.0 8.0 0.00 0.00 0.00 73 1005.7
20260506171004 47 70 3.0 7.0 0.00 0.00 0.00 72 1005.6
20260506170504 47 71 3.0 6.0 0.00 0.00 0.00 72 1005.8
20260506170004 47 98 3.0 8.0 0.00 0.00 0.00 71 1005.7
20260506165504 47 115 3.0 7.0 0.00 0.00 0.00 70 1005.8
20260506165004 47 58 3.0 7.0 0.00 0.00 0.00 70 1005.9
20260506164510 47 81 3.0 8.0 0.00 0.00 0.00 69 1005.9
20260506164010 47 92 3.0 7.0 0.00 0.00 0.00 69 1005.9
20260506163509 47 67 3.0 9.0 0.00 0.00 0.00 67 1006.0
20260506163009 48 89 3.0 7.0 0.00 0.00 0.00 67 1006.0
20260506162509 48 70 3.0 8.0 0.00 0.00 0.00 66 1005.9
20260506162009 47 99 3.0 8.0 0.00 0.00 0.00 66 1006.1
20260506161509 47 81 4.0 8.0 0.00 0.00 0.00 66 1006.2
20260506161009 47 89 3.0 9.0 0.00 0.00 0.00 66 1006.2
20260506160509 48 53 3.0 8.0 0.00 0.00 0.00 66 1006.3
20260506160009 48 102 4.0 8.0 0.00 0.00 0.00 64 1006.3
20260506155509 48 127 3.0 8.0 0.00 0.00 0.00 65 1006.4
20260506154508 48 73 3.0 7.0 0.00 0.00 0.00 63 1006.5
20260506153509 48 98 3.0 9.0 0.00 0.00 0.00 62 1006.4
20260506153009 48 102 5.0 9.0 0.00 0.00 0.00 61 1006.4
20260506152509 48 91 4.0 7.0 0.00 0.00 0.00 60 1006.5
20260506152009 48 31 3.0 8.0 0.00 0.00 0.00 61 1006.6
20260506151509 48 80 4.0 8.0 0.00 0.00 0.00 61 1006.7
20260506151010 48 80 4.0 10.0 0.00 0.00 0.00 61 1006.8
20260506150509 49 87 5.0 10.0 0.00 0.00 0.00 60 1006.7
20260506150009 48 75 4.0 10.0 0.00 0.00 0.00 60 1006.6
20260506145509 48 74 4.0 8.0 0.00 0.00 0.00 60 1006.9
20260506145009 48 83 5.0 10.0 0.00 0.00 0.00 59 1006.7
20260506144509 49 76 4.0 10.0 0.00 0.00 0.00 58 1006.8
20260506143509 48 76 4.0 9.0 0.00 0.00 0.00 58 1007.0
20260506143009 49 138 3.0 9.0 0.00 0.00 0.00 56 1007.0
20260506142509 50 124 3.0 8.0 0.00 0.00 0.00 55 1007.1
20260506142009 50 85 4.0 7.0 0.00 0.00 0.00 54 1007.1
20260506141509 50 130 3.0 8.0 0.00 0.00 0.00 53 1007.2
20260506140509 49 68 5.0 9.0 0.00 0.00 0.00 53 1007.5
20260506135509 49 84 5.0 8.0 0.00 0.00 0.00 55 1007.4
20260506135008 50 88 4.0 9.0 0.00 0.00 0.00 56 1007.3
20260506134508 50 63 4.0 9.0 0.00 0.00 0.00 56 1007.5
20260506134008 50 75 3.0 6.0 0.00 0.00 0.00 55 1007.5
20260506133508 50 70 2.0 10.0 0.00 0.00 0.00 53 1007.3
20260506133009 49 65 4.0 8.0 0.00 0.00 0.00 55 1007.6
20260506132509 49 95 5.0 8.0 0.00 0.00 0.00 56 1007.8
20260506132009 49 61 3.0 8.0 0.00 0.00 0.00 55 1007.7
20260506131508 48 101 5.0 8.0 0.00 0.00 0.00 57 1007.5
20260506131008 48 76 5.0 8.0 0.00 0.00 0.00 58 1007.7
20260506130508 49 105 5.0 8.0 0.00 0.00 0.00 57 1007.8
20260506130009 49 89 3.0 7.0 0.00 0.00 0.00 56 1007.9
20260506125509 49 68 4.0 7.0 0.00 0.00 0.00 56 1007.7
20260506124508 49 113 3.0 8.0 0.00 0.00 0.00 59 1007.7
20260506124009 49 134 3.0 9.0 0.00 0.00 0.00 55 1007.9
20260506123508 49 75 3.0 8.0 0.00 0.00 0.00 58 1007.9
20260506123008 48 127 4.0 9.0 0.00 0.00 0.00 61 1008.1
20260506122508 48 104 5.0 10.0 0.00 0.00 0.00 60 1008.0
20260506122008 48 69 3.0 9.0 0.00 0.00 0.00 60 1008.1
20260506121509 48 92 3.0 8.0 0.00 0.00 0.00 61 1008.0
20260506121009 48 139 5.0 12.0 0.00 0.00 0.00 62 1008.2
20260506120508 48 105 4.0 9.0 0.00 0.00 0.00 60 1008.5
20260506115009 48 137 3.0 9.0 0.00 0.00 0.00 60 1008.4
20260506114508 48 76 3.0 7.0 0.00 0.00 0.00 62 1008.3
20260506114009 48 80 3.0 9.0 0.00 0.00 0.00 63 1008.4
20260506113508 49 76 5.0 9.0 0.00 0.00 0.00 62 1008.5
20260506113008 48 93 3.0 7.0 0.00 0.00 0.00 63 1008.5
20260506112009 47 126 4.0 9.0 0.00 0.00 0.00 66 1008.4
20260506111508 46 64 3.0 10.0 0.00 0.00 0.00 67 1008.4
20260506111008 47 85 3.0 10.0 0.00 0.00 0.00 65 1008.6
20260506110508 48 134 3.0 8.0 0.00 0.00 0.00 65 1008.6
20260506105508 48 51 3.0 7.0 0.00 0.00 0.00 66 1008.6
20260506105007 48 81 3.0 7.0 0.00 0.00 0.00 66 1008.7
20260506104008 48 67 3.0 7.0 0.00 0.00 0.00 66 1008.8
20260506103508 48 51 3.0 7.0 0.00 0.00 0.00 67 1008.8
20260506103008 48 78 2.0 5.0 0.00 0.00 0.00 65 1008.8
20260506102508 48 64 2.0 7.0 0.00 0.00 0.00 67 1009.0
20260506102008 48 93 2.0 7.0 0.00 0.00 0.00 65 1008.8
20260506101507 46 97 3.0 6.0 0.00 0.00 0.00 68 1008.8
20260506100508 45 113 2.0 5.0 0.00 0.00 0.00 69 1008.7
20260506100008 45 72 3.0 6.0 0.00 0.00 0.00 70 1008.9
20260506095507 45 99 3.0 7.0 0.00 0.00 0.00 71 1008.8
20260506095008 46 96 3.0 5.0 0.00 0.00 0.00 70 1009.1
20260506094508 46 110 2.0 6.0 0.00 0.00 0.00 69 1009.0
20260506094008 47 133 2.0 6.0 0.00 0.00 0.00 66 1009.0
20260506093008 48 71 0.0 1.0 0.00 0.00 0.00 57 1009.0
20260506092507 47 101 1.0 2.0 0.00 0.00 0.00 59 1009.2
20260506092007 47 46 0.0 1.0 0.00 0.00 0.00 61 1009.0
20260506091507 46 332 1.0 2.0 0.00 0.00 0.00 61 1009.1
20260506091007 47 76 1.0 2.0 0.00 0.00 0.00 65 1009.0
20260506090007 47 93 1.0 2.0 0.00 0.00 0.00 64 1009.1
20260506085507 47 61 0.0 1.0 0.00 0.00 0.00 68 1009.3
20260506084508 45 121 1.0 2.0 0.00 0.00 0.00 69 1009.6
20260506084008 46 147 0.0 1.0 0.00 0.00 0.00 71 1009.5
20260506083507 46 116 0.0 2.0 0.00 0.00 0.00 71 1009.3
20260506083008 46 56 0.0 1.0 0.00 0.00 0.00 72 1009.5
20260506082508 45 297 0.0 1.0 0.00 0.00 0.00 73 1009.5
20260506081508 45 325 0.0 2.0 0.00 0.00 0.00 72 1009.4
20260506081007 45 75 0.0 2.0 0.00 0.00 0.00 73 1009.3
20260506080508 46 138 0.0 1.0 0.00 0.00 0.00 72 1009.5
20260506073507 46 98 0.0 2.0 0.00 0.00 0.00 76 1009.5
20260506072507 45 140 0.0 1.0 0.00 0.00 0.00 77 1009.6
20260506072007 44 50 0.0 2.0 0.00 0.00 0.00 79 1009.6
20260506070507 43 231 0.0 1.0 0.00 0.00 0.00 80 1009.6
20260506062507 41 156 1.0 2.0 0.00 0.00 0.00 84 1009.6
20260506062007 40 157 0.0 1.0 0.00 0.00 0.00 84 1009.6
20260506061507 40 124 0.0 2.0 0.00 0.00 0.00 84 1009.7
20260506061007 40 148 0.0 1.0 0.00 0.00 0.00 85 1009.6
20260506051007 34 121 0.0 0.0 0.00 0.00 0.00 94 1010.0
20260506050507 34 85 0.0 0.0 0.00 0.00 0.00 94 1010.2
20260506045007 33 126 0.0 0.0 0.00 0.00 0.00 94 1010.1
20260506044507 33 138 0.0 0.0 0.00 0.00 0.00 94 1010.3
20260506043508 33 126 0.0 0.0 0.00 0.00 0.00 94 1010.3
20260506043006 33 129 0.0 1.0 0.00 0.00 0.00 94 1010.3
20260506042506 33 145 0.0 1.0 0.00 0.00 0.00 94 1010.4
20260506042006 32 124 0.0 1.0 0.00 0.00 0.00 94 1010.3
20260506041507 33 116 0.0 1.0 0.00 0.00 0.00 94 1010.4
20260506041006 33 68 0.0 1.0 0.00 0.00 0.00 94 1010.4
20260506040506 33 86 0.0 1.0 0.00 0.00 0.00 94 1010.4
20260506040006 33 71 0.0 1.0 0.00 0.00 0.00 94 1010.5
20260506035506 32 129 0.0 0.0 0.00 0.00 0.00 94 1010.6
20260506034506 32 108 0.0 0.0 0.00 0.00 0.00 94 1010.5
20260506033506 33 128 0.0 0.0 0.00 0.00 0.00 94 1010.6
20260506033006 33 128 0.0 0.0 0.00 0.01 0.00 94 1010.7
20260506032506 32 79 0.0 0.0 0.00 0.01 0.00 94 1010.8
20260506031506 32 160 0.0 1.0 0.00 0.01 0.00 94 1010.8
20260506030506 32 162 0.0 1.0 0.00 0.01 0.00 94 1010.9
20260506030006 32 118 0.0 0.0 0.00 0.01 0.00 94 1010.9
20260506025006 32 131 0.0 0.0 0.00 0.01 0.00 94 1010.8
20260506024507 32 146 0.0 0.0 0.00 0.01 0.00 94 1010.7
20260506024007 33 143 0.0 0.0 0.00 0.01 0.00 94 1011.0
20260506023506 32 122 0.0 0.0 0.00 0.01 0.00 94 1010.9
20260506023006 32 86 0.0 0.0 0.00 0.01 0.00 93 1010.8
20260506022506 32 85 0.0 0.0 0.00 0.01 0.00 93 1010.9
20260506022006 32 85 0.0 0.0 0.00 0.01 0.00 93 1011.0
20260506021506 32 81 0.0 0.0 0.00 0.01 0.00 93 1011.0
20260506021006 32 208 0.0 0.0 0.00 0.01 0.00 93 1011.1
20260506015506 33 156 0.0 0.0 0.00 0.01 0.00 92 1011.1
20260506015006 32 124 0.0 0.0 0.00 0.01 0.00 92 1011.3
20260506014506 33 124 0.0 0.0 0.00 0.01 0.00 92 1011.1
20260506014006 33 123 0.0 0.0 0.00 0.01 0.00 92 1011.3
20260506012506 32 159 0.0 0.0 0.00 0.01 0.00 91 1011.2
20260506012006 32 158 0.0 0.0 0.00 0.01 0.00 91 1011.4
20260506011506 32 158 0.0 0.0 0.00 0.01 0.00 90 1011.2
20260506011006 33 158 0.0 0.0 0.00 0.01 0.00 90 1011.3
20260506010506 33 158 0.0 0.0 0.00 0.01 0.00 90 1011.2
20260506010005 33 158 0.0 1.0 0.00 0.01 0.00 90 1011.3
20260506004006 34 165 0.0 0.0 0.00 0.01 0.00 90 1011.5